Location: Neuvy Saint Sepulchre
(46.5953°N, 1.8122°E)
Time: 11:06:56
(UTC+02:00)

ISS - Pass Details

Date: 25 March 2024
Orbit: 413 x 419 km, 51.6° (Epoch: 13 April)

Event Time Altitude Azimuth Distance (km) Brightness Sun altitude
Rises 20:36:15 0° 295° (WNW) 2,365 2.0 -14.8°
Reaches altitude 10° 20:38:23 10° 301° (WNW) 1,502 0.4 -15.2°
Maximum altitude 20:41:41 51° 18° (NNE) 539 -3.3 -15.7°
Enters shadow 20:42:51 33° 75° (ENE) 733 -3.0 -15.9°
